Weather History for Eureka, NU

Change the Weather History Date:

Tuesday, February 12, 2013

  Actual Average Record
Temperature  
Mean Temperature -38 °F -  
Max Temperature -33 °F -30 °F -13 °F (2007)
Min Temperature -44 °F -43 °F -52 °F (1997)
Degree Days  
Heating Degree Days 104    
Moisture  
Dew Point -45 °F    
Average Humidity 64    
Maximum Humidity 74    
Minimum Humidity 47    
Precipitation  
Precipitation 0.00 in 0.00 in - ()
Sea Level Pressure  
Sea Level Pressure 29.98 in    
Wind  
Wind Speed 0 mph ()    
Max Wind Speed 4 mph    
Max Gust Speed -    
Visibility 15.0 miles    
Events Snow    
Averages and records for this station are not official NWS values.
T = Trace of Precipitation, MM = Missing Value Source: Averaged Metar Reports

Daily Weather History Graph

Daily Weather History Graph

Search for Another Location

Airport:

Trip Planner

Search our weather history database for the weather conditions in past years. The results will help you decide how hot, cold, wet, or windy it might be!

Date:

Astronomy

Dec. 31, 1969 Rise Set
Actual Time Sun does not rise Sun does not rise
Civil Twilight 9:09 AM CST 2:49 PM CST
Nautical Twilight 6:28 AM CST 5:30 PM CST
Astronomical Twilight 4:08 AM CST 7:53 PM CST
Moon 7:16 AM CST (2/12) 9:36 PM CST (2/12)
Length of Visible Light 5h 40m
Length of Day
0h 00m
Waxing Crescent, 7% of the Moon is Illuminated
Feb 12
Waxing Crescent
Feb 17
First Quarter
Feb 25
Full
Mar 4
Last Quarter
Mar 11
New

Hourly Weather History & Observations

Time (CST) Temp. Windchill Dew Point Humidity Pressure Visibility Wind Dir Wind Speed Gust Speed Precip Events Conditions
12:00 AM -43 °F - -48 °F 57% 29.99 in 15 mi Calm Calm - - Snow Snow
12:00 AM -41.8 °F - -49.0 °F 67% 29.99 in 15.0 mi Calm Calm - N/A   Clear
1:00 AM -41.8 °F - -49.0 °F 67% 29.99 in 15.0 mi Calm Calm - N/A   Clear
2:00 AM -40.0 °F - -47.2 °F 67% 29.98 in 15.0 mi Calm Calm - N/A   Clear
3:00 AM -40.0 °F - -47.2 °F 67% 29.99 in 15.0 mi Calm Calm - N/A   Clear
4:00 AM -40.0 °F - -47.2 °F 67% 29.98 in 15.0 mi Calm Calm - N/A   Clear
5:00 AM -40.0 °F - -45.4 °F 74% 29.98 in 15.0 mi Calm Calm - N/A   Clear
6:00 AM -39 °F - -46 °F 48% 29.97 in 15 mi Calm Calm - - Snow Snow
6:00 AM -38.2 °F - -45.4 °F 67% 29.97 in 15.0 mi Calm Calm - N/A   Clear
7:00 AM -40.0 °F - -47.2 °F 67% 29.98 in 15.0 mi Calm Calm - N/A   Partly Cloudy
8:00 AM -38.2 °F - -45.4 °F 67% 29.98 in 15.0 mi Calm Calm - N/A   Partly Cloudy
9:00 AM -38.2 °F - -45.4 °F 67% 29.98 in 15.0 mi Calm Calm - N/A   Partly Cloudy
10:00 AM -38.2 °F - -45.4 °F 67% 29.97 in 15.0 mi Calm Calm - N/A   Partly Cloudy
11:00 AM -36.4 °F -49.4 °F -43.6 °F 67% 29.97 in 15.0 mi ESE 3.5 mph - N/A   Scattered Clouds
12:00 PM -36 °F - -43 °F 49% 29.97 in 15 mi Calm Calm - - Snow Snow
12:00 PM -36.4 °F - -43.6 °F 67% 29.97 in 15.0 mi Calm Calm - N/A   Scattered Clouds
1:00 PM -34.6 °F - -41.8 °F 68% 29.97 in 15.0 mi Calm Calm - N/A   Scattered Clouds
2:00 PM -36.4 °F - -43.6 °F 67% 29.97 in 15.0 mi Calm Calm - N/A   Partly Cloudy
3:00 PM -36.4 °F - -43.6 °F 67% 29.98 in 15.0 mi Calm Calm - N/A   Partly Cloudy
4:00 PM -36.4 °F - -43.6 °F 67% 29.98 in 15.0 mi Calm Calm - N/A   Clear
5:00 PM -36.4 °F - -43.6 °F 67% 29.98 in 15.0 mi SSE 2.3 mph - N/A   Clear
6:00 PM -36 °F - -44 °F 47% 29.99 in 15 mi Calm Calm - - Snow Snow
6:00 PM -36.4 °F - -43.6 °F 67% 29.99 in 15.0 mi Calm Calm - N/A   Clear
7:00 PM -34.6 °F - -41.8 °F 68% 29.99 in 15.0 mi Calm Calm - N/A   Clear
8:00 PM -34.6 °F - -43.6 °F 61% 29.98 in 15.0 mi Calm Calm - N/A   Clear
9:00 PM -34.6 °F - -43.6 °F 61% 29.98 in 15.0 mi Calm Calm - N/A   Clear